Tracking 22836 objects as of 16-Apr-2021
HD Live streaming from Space Station
objects crossing your sky now

SBS 2

Track SBS 2 now!
SBS 2 is classified as:


NORAD ID: 12855
Int'l Code: 1981-096A
Perigee: 35,819.2 km
Apogee: 35,857.6 km
Inclination: 13.2 °
Period: 1,438.4 minutes
Semi major axis: 42209 km
RCS: 7.6855 m2 (large)
Launch date: September 24, 1981
Source: United States (US)
Launch site: AIR FORCE EASTERN TEST RANGE (AFETR)
aabbcc
Your satellite tracking list
Your tracking list is empty




NASA's NSSDC Master Catalog

Two Line Element Set (TLE):
1 12855U 81096A   21105.56157581 -.00000131  00000-0  00000-0 0  9998
2 12855  13.1909 336.0883 0004548 123.2051 209.4394  1.00112743 99695
Source of the keplerian elements: AFSPC